Total_Precipitation_Accumulation
0.36 0.49 0.88 1.31 1.36 0.83 0.46 0.27 0.12 0.11 0.11 0.06 0.03 0.05 0.16 0.39 0.53 0.65 0.45 0.33 0.24 0.20 0.19 0.23 0.30 0.25 0.21 0.17 0.16 0.16 0.18 0.18 0.13 0.12 0.12 0.09 0.07 0.06 0.06 0.04 0.03 0.03 0.06 0.08 0.13 0.19 0.24 0.29 0.36
0.37 0.83 1.38 1.67 1.20 0.67 0.56 0.35 0.19 0.11 0.07 0.04 0.02 0.04 0.12 0.16 0.17 0.29 0.56 0.57 0.30 0.27 0.25 0.28 0.39 0.36 0.33 0.27 0.24 0.23 0.25 0.24 0.19 0.15 0.14 0.11 0.08 0.07 0.08 0.05 0.04 0.03 0.05 0.07 0.10 0.13 0.20 0.27 0.35
0.66 1.22 1.73 1.51 0.86 0.66 0.60 0.39 0.23 0.13 0.07 0.04 0.03 0.04 0.10 0.18 0.25 0.43 0.61 0.51 0.32 0.28 0.29 0.41 0.51 0.46 0.45 0.39 0.35 0.34 0.31 0.29 0.25 0.21 0.19 0.16 0.14 0.10 0.08 0.07 0.06 0.05 0.05 0.06 0.08 0.11 0.18 0.24 0.26
0.82 1.32 1.42 1.03 0.75 0.62 0.48 0.33 0.18 0.12 0.08 0.03 0.03 0.06 0.09 0.18 0.35 0.54 0.50 0.37 0.34 0.31 0.32 0.45 0.52 0.49 0.51 0.49 0.48 0.50 0.42 0.38 0.32 0.27 0.25 0.24 0.20 0.14 0.12 0.12 0.14 0.09 0.06 0.05 0.08 0.12 0.18 0.22 0.25
0.95 1.21 1.09 0.80 0.80 0.62 0.44 0.29 0.18 0.16 0.12 0.04 0.04 0.11 0.17 0.26 0.39 0.52 0.56 0.44 0.43 0.43 0.38 0.39 0.46 0.50 0.56 0.54 0.51 0.58 0.56 0.54 0.43 0.35 0.31 0.29 0.25 0.21 0.19 0.21 0.21 0.17 0.12 0.08 0.07 0.09 0.13 0.17 0.23
0.91 1.01 0.93 0.79 0.85 0.72 0.62 0.43 0.26 0.20 0.14 0.07 0.08 0.18 0.22 0.31 0.48 0.54 0.60 0.63 0.60 0.57 0.47 0.40 0.45 0.53 0.58 0.59 0.64 0.76 0.76 0.68 0.54 0.42 0.41 0.38 0.36 0.31 0.28 0.28 0.25 0.25 0.22 0.16 0.11 0.08 0.09 0.10 0.16
0.87 0.88 0.75 0.56 0.66 0.89 0.68 0.51 0.37 0.27 0.18 0.14 0.11 0.21 0.26 0.30 0.41 0.52 0.64 0.74 0.85 0.85 0.71 0.56 0.54 0.59 0.69 0.76 0.80 0.92 0.96 0.88 0.69 0.54 0.52 0.49 0.43 0.38 0.34 0.33 0.31 0.28 0.25 0.19 0.14 0.11 0.09 0.08 0.10
0.68 0.65 0.60 0.62 0.71 0.94 0.72 0.46 0.27 0.22 0.19 0.17 0.15 0.25 0.40 0.38 0.43 0.54 0.63 0.77 0.86 0.91 0.86 0.79 0.74 0.74 0.82 0.88 1.00 1.10 1.20 1.30 1.05 0.75 0.66 0.61 0.50 0.42 0.40 0.38 0.38 0.36 0.35 0.30 0.23 0.19 0.15 0.14 0.12
0.63 0.67 0.79 1.03 0.91 0.59 0.46 0.40 0.23 0.16 0.15 0.15 0.15 0.20 0.29 0.36 0.40 0.48 0.55 0.62 0.64 0.67 0.71 0.77 0.80 0.86 0.86 0.82 0.88 1.10 1.28 1.46 1.19 0.82 0.83 0.74 0.52 0.50 0.51 0.47 0.54 0.55 0.55 0.49 0.39 0.29 0.24 0.21 0.18
0.58 0.64 0.80 0.83 0.57 0.36 0.31 0.31 0.25 0.21 0.18 0.15 0.15 0.20 0.25 0.31 0.39 0.45 0.49 0.54 0.53 0.54 0.51 0.54 0.57 0.66 0.73 0.72 0.93 1.18 1.22 1.34 1.09 0.91 0.95 0.90 0.94 0.87 0.67 0.62 0.74 0.79 0.79 0.69 0.58 0.47 0.34 0.25 0.17
0.60 0.64 0.59 0.43 0.27 0.26 0.25 0.24 0.20 0.18 0.18 0.15 0.16 0.21 0.25 0.31 0.35 0.41 0.45 0.45 0.44 0.42 0.40 0.39 0.41 0.44 0.53 0.74 0.98 1.20 1.25 1.29 1.33 1.36 1.22 1.19 1.14 0.94 0.76 0.70 0.72 0.73 0.77 0.67 0.68 0.62 0.44 0.32 0.21
0.65 0.58 0.49 0.36 0.22 0.21 0.23 0.19 0.18 0.16 0.15 0.12 0.14 0.20 0.28 0.34 0.34 0.34 0.40 0.45 0.48 0.46 0.44 0.38 0.30 0.31 0.39 0.53 0.75 1.03 1.10 1.16 1.23 1.23 1.03 1.11 1.11 0.93 0.86 0.92 0.93 0.85 0.78 0.85 0.86 0.77 0.65 0.47 0.30
0.61 0.58 0.41 0.24 0.21 0.24 0.24 0.21 0.15 0.14 0.14 0.13 0.16 0.23 0.32 0.36 0.35 0.31 0.32 0.37 0.44 0.53 0.61 0.59 0.43 0.37 0.39 0.45 0.50 0.64 0.74 0.85 1.12 1.20 0.93 0.91 0.92 0.96 0.98 0.88 1.00 1.03 0.99 0.94 0.89 0.78 0.68 0.60 0.43
0.63 0.50 0.31 0.22 0.22 0.22 0.23 0.19 0.12 0.14 0.15 0.14 0.16 0.23 0.29 0.37 0.40 0.38 0.35 0.34 0.33 0.36 0.49 0.57 0.55 0.54 0.52 0.45 0.40 0.40 0.46 0.58 0.73 0.75 0.70 0.74 0.76 0.85 0.99 0.91 0.88 0.95 1.12 1.13 1.00 0.87 0.79 0.70 0.52
0.34 0.31 0.31 0.31 0.31 0.30 0.26 0.19 0.10 0.10 0.13 0.11 0.11 0.15 0.19 0.25 0.31 0.35 0.32 0.26 0.25 0.26 0.32 0.42 0.50 0.56 0.58 0.59 0.58 0.48 0.47 0.52 0.54 0.54 0.60 0.67 0.66 0.79 0.94 0.87 0.75 0.73 0.89 1.04 1.12 1.07 0.93 0.77 0.61
0.30 0.31 0.46 0.41 0.41 0.39 0.30 0.20 0.10 0.12 0.10 0.08 0.07 0.08 0.11 0.12 0.15 0.22 0.27 0.27 0.25 0.25 0.25 0.31 0.36 0.43 0.53 0.62 0.69 0.66 0.62 0.57 0.51 0.46 0.44 0.48 0.49 0.57 0.75 0.79 0.68 0.67 0.83 1.01 1.13 1.16 1.10 0.89 0.76
0.39 0.41 0.43 0.35 0.31 0.28 0.19 0.13 0.09 0.08 0.06 0.04 0.03 0.03 0.05 0.07 0.09 0.11 0.15 0.20 0.24 0.24 0.23 0.24 0.28 0.32 0.40 0.51 0.58 0.58 0.57 0.53 0.51 0.50 0.40 0.38 0.39 0.49 0.68 0.81 0.82 0.82 0.89 0.98 1.05 1.17 1.15 1.06 0.87
0.30 0.28 0.25 0.18 0.14 0.12 0.10 0.08 0.07 0.05 0.03 0.02 0.01 0.02 0.02 0.01 0.03 0.06 0.09 0.15 0.23 0.24 0.24 0.24 0.26 0.27 0.31 0.35 0.43 0.48 0.45 0.44 0.50 0.49 0.47 0.50 0.56 0.60 0.76 0.93 1.03 1.12 1.11 1.12 1.26 1.48 1.42 1.17 1.03
0.23 0.12 0.06 0.04 0.04 0.03 0.03 0.03 0.03 0.02 0.01 0.01 0.01 0.01 0.01 0.01 0.01 0.01 0.02 0.06 0.13 0.18 0.17 0.19 0.24 0.26 0.25 0.24 0.29 0.34 0.35 0.44 0.51 0.58 0.63 0.68 0.71 0.77 0.93 1.11 1.31 1.41 1.26 1.23 1.40 1.62 1.71 1.45 1.24
0.20 0.11 0.03 0.02 0.01 0.01 0.01 0.01 0.01 0.01 0.01 0.01 0.01 0.01 0.01 0.01 0.01 0.01 0.01 0.01 0.02 0.05 0.09 0.13 0.15 0.17 0.17 0.18 0.23 0.32 0.39 0.45 0.58 0.74 0.85 0.86 0.84 0.88 0.92 1.09 1.25 1.30 1.29 1.28 1.33 1.49 1.71 1.61 1.42
0.07 0.04 0.01 0.01 0.01 0.01 0.01 0.01 0.02 0.02 0.02 0.01 0.02 0.02 0.02 0.02 0.02 0.02 0.02 0.01 0.01 0.02 0.03 0.06 0.11 0.14 0.14 0.22 0.41 0.68 0.92 1.01 1.02 1.04 1.19 1.28 1.24 1.18 1.15 1.16 1.28 1.34 1.41 1.35 1.31 1.34 1.51 1.57 1.49
0.03 0.01 0.00 0.01 0.01 0.00 0.01 0.02 0.02 0.04 0.05 0.06 0.06 0.07 0.07 0.08 0.06 0.04 0.03 0.03 0.02 0.03 0.03 0.04 0.09 0.15 0.18 0.35 0.68 1.07 1.39 1.48 1.49 1.61 1.65 1.71 1.63 1.49 1.46 1.46 1.53 1.45 1.38 1.29 1.26 1.26 1.36 1.56 1.55
0.03 0.02 0.01 0.00 0.01 0.00 0.00 0.01 0.04 0.07 0.12 0.16 0.16 0.17 0.18 0.15 0.11 0.08 0.07 0.06 0.08 0.10 0.11 0.13 0.20 0.34 0.50 0.65 0.83 1.13 1.32 1.44 1.58 1.74 1.88 1.99 2.11 2.08 1.99 1.92 1.75 1.54 1.43 1.38 1.41 1.37 1.40 1.47 1.47
0.03 0.02 0.01 0.00 0.00 0.00 0.00 0.02 0.09 0.16 0.20 0.24 0.24 0.25 0.24 0.19 0.13 0.10 0.10 0.11 0.16 0.24 0.27 0.31 0.41 0.51 0.58 0.70 0.84 0.98 1.07 1.23 1.43 1.58 1.75 1.88 2.00 2.03 1.97 1.84 1.61 1.42 1.33 1.37 1.45 1.44 1.44 1.43 1.44
0.02 0.01 0.01 0.01 0.02 0.03 0.02 0.07 0.16 0.17 0.17 0.20 0.21 0.18 0.15 0.15 0.15 0.14 0.13 0.19 0.24 0.33 0.37 0.44 0.52 0.62 0.65 0.73 0.83 0.91 0.97 1.10 1.27 1.32 1.36 1.38 1.38 1.42 1.45 1.45 1.41 1.35 1.29 1.34 1.49 1.53 1.52 1.51 1.48
0.01 0.00 0.01 0.02 0.03 0.04 0.04 0.13 0.24 0.16 0.10 0.08 0.10 0.11 0.12 0.17 0.21 0.20 0.20 0.27 0.33 0.41 0.52 0.60 0.68 0.70 0.72 0.80 0.89 0.90 0.99 1.11 1.20 1.15 1.10 1.12 1.16 1.24 1.25 1.32 1.32 1.31 1.31 1.31 1.35 1.44 1.53 1.53 1.47
0.00 0.00 0.01 0.03 0.02 0.02 0.05 0.15 0.15 0.07 0.05 0.05 0.09 0.15 0.20 0.27 0.30 0.31 0.33 0.38 0.41 0.49 0.60 0.68 0.73 0.75 0.82 0.86 0.94 1.08 1.12 1.13 1.10 1.00 0.94 0.96 0.92 0.93 1.04 1.14 1.20 1.16 1.17 1.20 1.28 1.39 1.44 1.50 1.53
0.00 0.01 0.02 0.03 0.04 0.07 0.11 0.15 0.13 0.08 0.10 0.12 0.17 0.24 0.35 0.44 0.45 0.47 0.52 0.56 0.56 0.57 0.65 0.73 0.80 0.87 0.89 0.91 1.02 1.19 1.14 0.91 0.76 0.66 0.70 0.74 0.78 0.82 0.89 0.86 0.82 0.81 0.86 0.88 0.97 1.13 1.21 1.26 1.32
0.05 0.03 0.02 0.02 0.03 0.14 0.29 0.42 0.46 0.45 0.38 0.42 0.42 0.49 0.63 0.68 0.69 0.69 0.70 0.72 0.66 0.67 0.73 0.78 0.83 0.93 0.97 0.93 1.03 1.06 0.85 0.61 0.49 0.47 0.45 0.44 0.47 0.52 0.60 0.55 0.52 0.58 0.62 0.59 0.66 0.75 0.86 0.95 1.00
0.07 0.06 0.03 0.05 0.07 0.16 0.33 0.54 0.64 0.70 0.68 0.79 0.85 0.96 0.89 0.83 0.83 0.77 0.70 0.68 0.57 0.57 0.67 0.75 0.84 0.89 0.84 0.80 0.79 0.65 0.47 0.37 0.34 0.30 0.25 0.22 0.22 0.22 0.29 0.32 0.32 0.40 0.51 0.52 0.57 0.61 0.63 0.68 0.73